| time (UTC) | temp F | wind direction | speed MPH | gust MPH | rain 1hr in | rain 24hr in | rain mn in | humidity % | barometer mb |
| 20260504081954 | 63 | 182 | 2.0 | 3.0 | 0.00 | 0.00 | 0.00 | 79 | 1015.0 |
| 20260504081455 | 63 | 114 | 0.0 | 2.0 | 0.00 | 0.00 | 0.00 | 78 | 1016.0 |
| 20260504080954 | 63 | 174 | 2.0 | 7.0 | 0.00 | 0.00 | 0.00 | 78 | 1016.0 |
| 20260504080454 | 63 | 183 | 1.0 | 4.0 | 0.00 | 0.00 | 0.00 | 78 | 1016.0 |
| 20260504050454 | 65 | 124 | 1.0 | 2.0 | 0.00 | 0.00 | 0.00 | 68 | 1018.0 |
| 20260504045954 | 66 | 58 | 1.0 | 3.0 | 0.00 | 0.00 | 0.00 | 68 | 1017.0 |
| 20260504045454 | 66 | 145 | 1.0 | 2.0 | 0.00 | 0.00 | 0.00 | 67 | 1017.0 |
| 20260504044954 | 66 | 151 | 2.0 | 3.0 | 0.00 | 0.00 | 0.00 | 67 | 1018.0 |
| 20260504044454 | 66 | 131 | 2.0 | 6.0 | 0.00 | 0.00 | 0.00 | 66 | 1018.0 |
| 20260504043954 | 66 | 191 | 1.0 | 2.0 | 0.00 | 0.00 | 0.00 | 66 | 1018.0 |
| 20260504043454 | 67 | 209 | 2.0 | 4.0 | 0.00 | 0.00 | 0.00 | 65 | 1017.0 |
| 20260504042954 | 67 | 177 | 2.0 | 4.0 | 0.00 | 0.00 | 0.00 | 65 | 1017.0 |
| 20260504042454 | 67 | 162 | 2.0 | 5.0 | 0.00 | 0.00 | 0.00 | 64 | 1018.0 |
| 20260504041954 | 67 | 182 | 3.0 | 6.0 | 0.00 | 0.00 | 0.00 | 64 | 1018.0 |
| 20260504041454 | 67 | 169 | 2.0 | 4.0 | 0.00 | 0.00 | 0.00 | 63 | 1018.0 |
| 20260504040954 | 67 | 187 | 2.0 | 5.0 | 0.00 | 0.00 | 0.00 | 62 | 1018.0 |
| 20260504040454 | 68 | 132 | 2.0 | 4.0 | 0.00 | 0.00 | 0.00 | 61 | 1018.0 |
| 20260504035954 | 68 | 162 | 3.0 | 5.0 | 0.00 | 0.00 | 0.00 | 60 | 1018.0 |
| 20260504035454 | 68 | 79 | 2.0 | 4.0 | 0.00 | 0.00 | 0.00 | 58 | 1018.0 |
| 20260504034954 | 68 | 101 | 2.0 | 6.0 | 0.00 | 0.00 | 0.00 | 57 | 1018.0 |
| 20260504034454 | 68 | 71 | 1.0 | 3.0 | 0.00 | 0.00 | 0.00 | 57 | 1018.0 |
| 20260504033954 | 68 | 95 | 2.0 | 4.0 | 0.00 | 0.00 | 0.00 | 57 | 1018.0 |
| 20260504033454 | 67 | 88 | 1.0 | 3.0 | 0.00 | 0.00 | 0.00 | 57 | 1018.0 |
| 20260504032954 | 67 | 157 | 1.0 | 2.0 | 0.00 | 0.00 | 0.00 | 59 | 1018.0 |
| 20260504032455 | 67 | 103 | 1.0 | 4.0 | 0.00 | 0.00 | 0.00 | 59 | 1018.0 |
| 20260504031955 | 67 | 47 | 1.0 | 2.0 | 0.00 | 0.00 | 0.00 | 59 | 1018.0 |
| 20260504031454 | 68 | 23 | 0.0 | 1.0 | 0.00 | 0.00 | 0.00 | 59 | 1018.0 |
| 20260504030954 | 68 | 101 | 1.0 | 2.0 | 0.00 | 0.00 | 0.00 | 58 | 1018.0 |
| 20260504030456 | 68 | 73 | 1.0 | 2.0 | 0.00 | 0.00 | 0.00 | 58 | 1018.0 |
| 20260504025955 | 68 | 92 | 1.0 | 3.0 | 0.00 | 0.00 | 0.00 | 58 | 1018.0 |
| 20260504025454 | 68 | 92 | 1.0 | 1.0 | 0.00 | 0.00 | 0.00 | 58 | 1018.0 |
| 20260504024954 | 68 | 70 | 1.0 | 2.0 | 0.00 | 0.00 | 0.00 | 57 | 1018.0 |
| 20260504024454 | 68 | 36 | 0.0 | 1.0 | 0.00 | 0.00 | 0.00 | 57 | 1018.0 |
| 20260504023954 | 68 | 69 | 0.0 | 1.0 | 0.00 | 0.00 | 0.00 | 57 | 1018.0 |
| 20260504023454 | 68 | 111 | 1.0 | 1.0 | 0.00 | 0.00 | 0.00 | 57 | 1017.0 |
| 20260504022955 | 68 | 85 | 1.0 | 2.0 | 0.00 | 0.00 | 0.00 | 57 | 1018.0 |
| 20260504022454 | 69 | 262 | 0.0 | 1.0 | 0.00 | 0.00 | 0.00 | 57 | 1018.0 |
| 20260504021954 | 69 | 72 | 0.0 | 2.0 | 0.00 | 0.00 | 0.00 | 56 | 1018.0 |
| 20260504021454 | 69 | 102 | 0.0 | 1.0 | 0.00 | 0.00 | 0.00 | 56 | 1018.0 |
| 20260504020954 | 69 | 195 | 0.0 | 2.0 | 0.00 | 0.00 | 0.00 | 55 | 1018.0 |
| 20260504020459 | 70 | 89 | 0.0 | 1.0 | 0.00 | 0.00 | 0.00 | 55 | 1018.0 |
| 20260504015955 | 70 | 121 | 0.0 | 0.0 | 0.00 | 0.00 | 0.00 | 54 | 1017.0 |
| 20260504015454 | 70 | 65 | 0.0 | 2.0 | 0.00 | 0.00 | 0.00 | 54 | 1017.0 |
| 20260504014954 | 71 | 48 | 1.0 | 1.0 | 0.00 | 0.00 | 0.00 | 53 | 1017.0 |
| 20260504014454 | 71 | 70 | 1.0 | 2.0 | 0.00 | 0.00 | 0.00 | 51 | 1017.0 |
| 20260504013954 | 71 | 95 | 0.0 | 2.0 | 0.00 | 0.00 | 0.00 | 51 | 1017.0 |
| 20260504013454 | 72 | 75 | 0.0 | 1.0 | 0.00 | 0.00 | 0.00 | 50 | 1017.0 |
| 20260504012954 | 72 | 91 | 0.0 | 1.0 | 0.00 | 0.00 | 0.00 | 49 | 1017.0 |
| 20260504012453 | 72 | 93 | 1.0 | 2.0 | 0.00 | 0.00 | 0.00 | 49 | 1017.0 |
| 20260504011954 | 73 | 97 | 0.0 | 1.0 | 0.00 | 0.00 | 0.00 | 49 | 1017.0 |
| 20260504011454 | 73 | 100 | 0.0 | 1.0 | 0.00 | 0.00 | 0.00 | 48 | 1017.0 |
| 20260504010955 | 73 | 183 | 0.0 | 1.0 | 0.00 | 0.00 | 0.00 | 47 | 1017.0 |
| 20260504010454 | 73 | 278 | 0.0 | 1.0 | 0.00 | 0.00 | 0.00 | 47 | 1017.0 |
| 20260504005955 | 74 | 201 | 0.0 | 2.0 | 0.00 | 0.00 | 0.00 | 47 | 1017.0 |
| 20260504005454 | 74 | 102 | 0.0 | 1.0 | 0.00 | 0.00 | 0.00 | 46 | 1017.0 |
| 20260504004956 | 74 | 58 | 1.0 | 2.0 | 0.00 | 0.00 | 0.00 | 46 | 1017.0 |
| 20260504004454 | 75 | 100 | 1.0 | 2.0 | 0.00 | 0.00 | 0.00 | 45 | 1017.0 |
| 20260504003954 | 75 | 187 | 2.0 | 4.0 | 0.00 | 0.00 | 0.00 | 45 | 1017.0 |
| 20260504003454 | 75 | 182 | 1.0 | 2.0 | 0.00 | 0.00 | 0.00 | 45 | 1017.0 |
| 20260504002954 | 76 | 165 | 1.0 | 4.0 | 0.00 | 0.00 | 0.00 | 44 | 1017.0 |
| 20260504002500 | 76 | 153 | 1.0 | 2.0 | 0.00 | 0.00 | 0.00 | 44 | 1017.0 |
| 20260504001954 | 76 | 162 | 1.0 | 3.0 | 0.00 | 0.00 | 0.00 | 43 | 1017.0 |
| 20260504001455 | 76 | 177 | 1.0 | 2.0 | 0.00 | 0.00 | 0.00 | 44 | 1017.0 |
| 20260504000954 | 76 | 85 | 2.0 | 5.0 | 0.00 | 0.00 | 0.00 | 43 | 1017.0 |
| 20260504000454 | 76 | 198 | 1.0 | 4.0 | 0.00 | 0.00 | 0.00 | 43 | 1017.0 |
| 20260503235954 | 76 | 90 | 1.0 | 4.0 | 0.00 | 0.00 | 0.00 | 42 | 1018.0 |
| 20260503235454 | 77 | 167 | 2.0 | 6.0 | 0.00 | 0.00 | 0.00 | 41 | 1017.0 |
| 20260503234954 | 77 | 103 | 2.0 | 2.0 | 0.00 | 0.00 | 0.00 | 42 | 1017.0 |
| 20260503234454 | 77 | 130 | 2.0 | 4.0 | 0.00 | 0.00 | 0.00 | 41 | 1017.0 |
| 20260503233954 | 77 | 111 | 2.0 | 3.0 | 0.00 | 0.00 | 0.00 | 41 | 1017.0 |
| 20260503233455 | 77 | 82 | 1.0 | 3.0 | 0.00 | 0.00 | 0.00 | 42 | 1017.0 |
| 20260503232954 | 77 | 177 | 1.0 | 3.0 | 0.00 | 0.00 | 0.00 | 42 | 1018.0 |
| 20260503232454 | 77 | 133 | 2.0 | 4.0 | 0.00 | 0.00 | 0.00 | 41 | 1018.0 |
| 20260503231954 | 77 | 79 | 1.0 | 3.0 | 0.00 | 0.00 | 0.00 | 41 | 1018.0 |
| 20260503231454 | 78 | 180 | 1.0 | 2.0 | 0.00 | 0.00 | 0.00 | 41 | 1018.0 |
| 20260503230956 | 78 | 126 | 3.0 | 7.0 | 0.00 | 0.00 | 0.00 | 40 | 1017.0 |
| 20260503230454 | 79 | 187 | 2.0 | 4.0 | 0.00 | 0.00 | 0.00 | 40 | 1017.0 |
| 20260503225953 | 80 | 73 | 2.0 | 4.0 | 0.00 | 0.00 | 0.00 | 40 | 1017.0 |
| 20260503225454 | 80 | 175 | 1.0 | 4.0 | 0.00 | 0.00 | 0.00 | 39 | 1017.0 |
| 20260503224954 | 80 | 113 | 2.0 | 4.0 | 0.00 | 0.00 | 0.00 | 39 | 1017.0 |
| 20260503224455 | 80 | 96 | 2.0 | 6.0 | 0.00 | 0.00 | 0.00 | 40 | 1017.0 |
| 20260503223954 | 80 | 157 | 3.0 | 6.0 | 0.00 | 0.00 | 0.00 | 39 | 1018.0 |
| 20260503223454 | 80 | 139 | 3.0 | 6.0 | 0.00 | 0.00 | 0.00 | 38 | 1018.0 |
| 20260503222954 | 80 | 194 | 2.0 | 5.0 | 0.00 | 0.00 | 0.00 | 38 | 1018.0 |
| 20260503222454 | 80 | 183 | 5.0 | 9.0 | 0.00 | 0.00 | 0.00 | 38 | 1018.0 |
| 20260503221954 | 80 | 129 | 1.0 | 4.0 | 0.00 | 0.00 | 0.00 | 38 | 1018.0 |
| 20260503221454 | 80 | 184 | 2.0 | 6.0 | 0.00 | 0.00 | 0.00 | 38 | 1018.0 |
| 20260503220954 | 81 | 95 | 3.0 | 6.0 | 0.00 | 0.00 | 0.00 | 38 | 1018.0 |
| 20260503220454 | 81 | 177 | 2.0 | 5.0 | 0.00 | 0.00 | 0.00 | 38 | 1018.0 |
| 20260503215954 | 81 | 166 | 2.0 | 4.0 | 0.00 | 0.00 | 0.00 | 39 | 1018.0 |
| 20260503215455 | 80 | 123 | 2.0 | 5.0 | 0.00 | 0.00 | 0.00 | 37 | 1018.0 |
| 20260503214955 | 80 | 137 | 2.0 | 4.0 | 0.00 | 0.00 | 0.00 | 40 | 1018.0 |
| 20260503214454 | 80 | 161 | 3.0 | 5.0 | 0.00 | 0.00 | 0.00 | 39 | 1018.0 |
| 20260503213955 | 80 | 130 | 2.0 | 4.0 | 0.00 | 0.00 | 0.00 | 38 | 1018.0 |
| 20260503213454 | 80 | 154 | 2.0 | 4.0 | 0.00 | 0.00 | 0.00 | 39 | 1018.0 |
| 20260503212954 | 79 | 205 | 1.0 | 3.0 | 0.00 | 0.00 | 0.00 | 39 | 1018.0 |
| 20260503212454 | 79 | 134 | 2.0 | 5.0 | 0.00 | 0.00 | 0.00 | 38 | 1019.0 |
| 20260503211954 | 79 | 141 | 2.0 | 4.0 | 0.00 | 0.00 | 0.00 | 38 | 1019.0 |
| 20260503211454 | 80 | 212 | 1.0 | 3.0 | 0.00 | 0.00 | 0.00 | 39 | 1019.0 |
| 20260503210954 | 80 | 200 | 3.0 | 6.0 | 0.00 | 0.00 | 0.00 | 38 | 1019.0 |
| 20260503210454 | 80 | 182 | 2.0 | 4.0 | 0.00 | 0.00 | 0.00 | 37 | 1019.0 |
| 20260503205954 | 81 | 185 | 3.0 | 6.0 | 0.00 | 0.00 | 0.00 | 38 | 1019.0 |
| 20260503205454 | 81 | 183 | 1.0 | 4.0 | 0.00 | 0.00 | 0.00 | 38 | 1019.0 |
| 20260503204954 | 81 | 123 | 2.0 | 3.0 | 0.00 | 0.00 | 0.00 | 37 | 1019.0 |
| 20260503204454 | 80 | 112 | 2.0 | 5.0 | 0.00 | 0.00 | 0.00 | 40 | 1019.0 |
| 20260503203954 | 79 | 190 | 2.0 | 5.0 | 0.00 | 0.00 | 0.00 | 41 | 1019.0 |
| 20260503203454 | 79 | 172 | 4.0 | 8.0 | 0.00 | 0.00 | 0.00 | 37 | 1019.0 |
| 20260503202954 | 80 | 193 | 3.0 | 6.0 | 0.00 | 0.00 | 0.00 | 38 | 1020.0 |
| 20260503202454 | 80 | 183 | 6.0 | 9.0 | 0.00 | 0.00 | 0.00 | 36 | 1019.0 |
| 20260503201953 | 80 | 147 | 1.0 | 3.0 | 0.00 | 0.00 | 0.00 | 40 | 1019.0 |
| 20260503201455 | 80 | 183 | 2.0 | 4.0 | 0.00 | 0.00 | 0.00 | 40 | 1019.0 |
| 20260503200954 | 80 | 193 | 5.0 | 7.0 | 0.00 | 0.00 | 0.00 | 41 | 1020.0 |
| 20260503200454 | 80 | 180 | 4.0 | 7.0 | 0.00 | 0.00 | 0.00 | 37 | 1020.0 |
| 20260503195955 | 80 | 191 | 4.0 | 9.0 | 0.00 | 0.00 | 0.00 | 38 | 1020.0 |
| 20260503195454 | 81 | 105 | 2.0 | 4.0 | 0.00 | 0.00 | 0.00 | 38 | 1020.0 |
| 20260503194953 | 81 | 146 | 2.0 | 6.0 | 0.00 | 0.00 | 0.00 | 39 | 1020.0 |
| 20260503194454 | 80 | 116 | 1.0 | 4.0 | 0.00 | 0.00 | 0.00 | 40 | 1020.0 |
| 20260503193954 | 80 | 196 | 3.0 | 5.0 | 0.00 | 0.00 | 0.00 | 40 | 1020.0 |
| 20260503193455 | 80 | 199 | 2.0 | 4.0 | 0.00 | 0.00 | 0.00 | 39 | 1020.0 |
| 20260503192954 | 79 | 178 | 3.0 | 5.0 | 0.00 | 0.00 | 0.00 | 41 | 1020.0 |
| 20260503192454 | 80 | 178 | 3.0 | 7.0 | 0.00 | 0.00 | 0.00 | 40 | 1020.0 |
| 20260503191954 | 80 | 120 | 2.0 | 4.0 | 0.00 | 0.00 | 0.00 | 39 | 1020.0 |
| 20260503191455 | 79 | 85 | 2.0 | 4.0 | 0.00 | 0.00 | 0.00 | 41 | 1020.0 |
| 20260503190954 | 79 | 85 | 2.0 | 4.0 | 0.00 | 0.00 | 0.00 | 40 | 1020.0 |
| 20260503190453 | 80 | 215 | 3.0 | 6.0 | 0.00 | 0.00 | 0.00 | 41 | 1020.0 |
| 20260503185954 | 79 | 173 | 2.0 | 4.0 | 0.00 | 0.00 | 0.00 | 42 | 1020.0 |
| 20260503185455 | 79 | 159 | 3.0 | 6.0 | 0.00 | 0.00 | 0.00 | 40 | 1020.0 |
| 20260503184954 | 79 | 194 | 3.0 | 4.0 | 0.00 | 0.00 | 0.00 | 43 | 1021.0 |
| 20260503184454 | 79 | 107 | 2.0 | 3.0 | 0.00 | 0.00 | 0.00 | 41 | 1021.0 |
| 20260503183954 | 79 | 61 | 2.0 | 6.0 | 0.00 | 0.00 | 0.00 | 41 | 1021.0 |
| 20260503183455 | 79 | 117 | 3.0 | 5.0 | 0.00 | 0.00 | 0.00 | 41 | 1021.0 |
| 20260503182954 | 79 | 189 | 4.0 | 9.0 | 0.00 | 0.00 | 0.00 | 40 | 1021.0 |
| 20260503182454 | 78 | 113 | 2.0 | 4.0 | 0.00 | 0.00 | 0.00 | 41 | 1021.0 |
| 20260503181954 | 78 | 135 | 2.0 | 4.0 | 0.00 | 0.00 | 0.00 | 39 | 1021.0 |
| 20260503181454 | 78 | 125 | 3.0 | 6.0 | 0.00 | 0.00 | 0.00 | 41 | 1021.0 |
| 20260503180954 | 78 | 194 | 5.0 | 8.0 | 0.00 | 0.00 | 0.00 | 41 | 1021.0 |
| 20260503180454 | 78 | 190 | 3.0 | 6.0 | 0.00 | 0.00 | 0.00 | 41 | 1021.0 |
| 20260503175954 | 77 | 189 | 3.0 | 8.0 | 0.00 | 0.00 | 0.00 | 43 | 1022.0 |
| 20260503175455 | 78 | 183 | 5.0 | 8.0 | 0.00 | 0.00 | 0.00 | 42 | 1022.0 |
| 20260503174954 | 78 | 194 | 4.0 | 8.0 | 0.00 | 0.00 | 0.00 | 41 | 1022.0 |
| 20260503174454 | 77 | 178 | 3.0 | 5.0 | 0.00 | 0.00 | 0.00 | 42 | 1022.0 |
| 20260503173954 | 77 | 178 | 4.0 | 7.0 | 0.00 | 0.00 | 0.00 | 42 | 1022.0 |
| 20260503173454 | 77 | 190 | 4.0 | 6.0 | 0.00 | 0.00 | 0.00 | 43 | 1022.0 |
| 20260503172954 | 77 | 187 | 2.0 | 5.0 | 0.00 | 0.00 | 0.00 | 42 | 1022.0 |
| 20260503172454 | 78 | 167 | 3.0 | 5.0 | 0.00 | 0.00 | 0.00 | 40 | 1022.0 |
| 20260503171954 | 78 | 198 | 2.0 | 4.0 | 0.00 | 0.00 | 0.00 | 44 | 1022.0 |
| 20260503171454 | 78 | 187 | 2.0 | 7.0 | 0.00 | 0.00 | 0.00 | 44 | 1022.0 |
| 20260503170954 | 78 | 191 | 1.0 | 3.0 | 0.00 | 0.00 | 0.00 | 42 | 1022.0 |
| 20260503170454 | 77 | 172 | 2.0 | 3.0 | 0.00 | 0.00 | 0.00 | 43 | 1022.0 |
| 20260503150954 | 71 | 212 | 2.0 | 3.0 | 0.00 | 0.00 | 0.00 | 58 | 1023.0 |
| 20260503150454 | 70 | 237 | 3.0 | 6.0 | 0.00 | 0.00 | 0.00 | 58 | 1023.0 |
| 20260503130953 | 57 | 68 | 1.0 | 2.0 | 0.00 | 0.00 | 0.00 | 83 | 1022.0 |
| 20260503130454 | 57 | 276 | 0.0 | 1.0 | 0.00 | 0.00 | 0.00 | 84 | 1022.0 |
| 20260503110454 | 53 | 112 | 0.0 | 1.0 | 0.00 | 0.00 | 0.00 | 91 | 1022.0 |
| 20260503090455 | 55 | 100 | 0.0 | 1.0 | 0.00 | 0.00 | 0.00 | 88 | 1021.0 |